Flag for United Kingdom Weather past 2 weeks in Milton Keynes, England, United Kingdom

Now
37 °F

Clear.


Feels Like: 29 °F
Forecast: 37 / 46 °F
Wind: 13 mph from Northwest

Location: Luton Airport

Current Time: Jan 27, 2015 at 1:15:56 AM

Latest Report: Jan 27, 2015 at 12:50 AM


Visibility: 10 mi

Pressure: 30.33 "Hg

Humidity: 87%

Dew point: 34 °F

Location of Milton KeynesLocation

Historic Weather in Milton Keynes — Graph

°F

Milton Keynes temperature yesterday

Maximum temperature yesterday: 48 °F (at 6:20 AM)
Minimum temperature yesterday: 37 °F (at 10:50 PM)
Average temperature yesterday: 44 °F

Past Weeks' High & Low Weather Summary

 TemperatureHumidityPressure
High52 °F (Jan 12, 11:50 PM)100% (Jan 12, 11:50 AM)30.45 "Hg (Jan 12, 11:50 AM)
Low21 °F (Jan 23, 7:20 AM)66% (Jan 14, 4:50 PM)29.06 "Hg (Jan 15, 3:20 AM)
Average38 °F88%29.87 "Hg
* Reported Jan 12 12:20 AM — Jan 27 12:20 AM, Milton Keynes, Weather by CustomWeather, © 2014

Note: Actual official high and low records may vary slightly from our data, if they occured in-between our weather recording intervals... More about our weather records

Advertising

Milton Keynes weather history for previous 24 hours

 ConditionsComfort  
Time TempWeatherWind HumidityBarometerVisibility
12:20 AM
Jan 27
37 °FClear.13 mph93%30.33 "Hg10 mi
11:50 PM
Jan 26
37 °FClear.13 mph87%30.33 "Hg10 mi
11:20 PM37 °FClear.13 mph93%30.33 "Hg10 mi
10:50 PM37 °FClear.14 mph93%30.33 "Hg10 mi
10:20 PM39 °FClear.13 mph87%30.30 "Hg10 mi
9:50 PM39 °FClear.14 mph87%30.33 "Hg10 mi
9:20 PM39 °FPassing clouds.12 mph87%30.30 "HgN/A
8:50 PM39 °FClear.13 mph87%30.30 "Hg10 mi
8:20 PM39 °FClear.12 mph87%30.30 "Hg10 mi
7:50 PM39 °FClear.12 mph87%30.30 "Hg10 mi
7:20 PM41 °FClear.14 mph81%30.27 "Hg10 mi
6:50 PM41 °FClear.16 mph81%30.27 "Hg10 mi
6:20 PM41 °FQuite cool.13 mph81%30.27 "HgN/A
5:50 PM43 °FPassing clouds.16 mph71%30.27 "HgN/A
5:20 PM43 °FPassing clouds.17 mph71%30.24 "HgN/A
4:50 PM43 °FPassing clouds.13 mph76%30.24 "HgN/A
4:20 PM43 °FPartly sunny.15 mph71%30.24 "HgN/A
3:50 PM43 °FPartly sunny.13 mph76%30.21 "HgN/A
3:20 PM45 °FPartly sunny.16 mph71%30.21 "HgN/A
2:50 PM45 °FScattered clouds.18 mph71%30.21 "HgN/A
2:20 PM45 °FScattered clouds.17 mph71%30.18 "HgN/A
1:50 PM45 °FScattered clouds.15 mph71%30.18 "HgN/A
1:20 PM45 °FPassing clouds.16 mph71%30.18 "HgN/A
12:50 PM45 °FPassing clouds.20 mph76%30.21 "HgN/A
12:20 PM45 °FScattered clouds.15 mph76%30.18 "HgN/A
11:50 AM46 °FBroken clouds.15 mph76%30.18 "HgN/A
11:20 AM46 °FPartly sunny.17 mph82%30.18 "HgN/A
10:50 AM46 °FPartly sunny.16 mph87%30.18 "HgN/A
10:20 AM46 °FPartly sunny.15 mph93%30.18 "HgN/A
9:50 AM46 °FPartly sunny.12 mph93%30.15 "HgN/A
9:20 AM46 °FDrizzle. Partly sunny.21 mph100%30.15 "Hg2 mi
8:50 AM48 °FDrizzle. Low clouds.14 mph94%30.15 "Hg2 mi
8:20 AM48 °FPartly sunny.13 mph94%30.12 "HgN/A
7:50 AM48 °FBroken clouds.16 mph94%30.12 "HgN/A
7:20 AM48 °FPassing clouds.16 mph94%30.12 "HgN/A
6:50 AM46 °FPassing clouds.17 mph93%30.12 "HgN/A
6:20 AM48 °FPassing clouds.18 mph87%30.12 "HgN/A
5:50 AM46 °FPassing clouds.16 mph100%30.12 "HgN/A
5:20 AM46 °FLow clouds.20 mph100%30.12 "HgN/A
4:50 AM46 °FPassing clouds.20 mph100%30.12 "HgN/A
4:20 AM46 °FLow clouds.20 mph100%30.15 "HgN/A
3:50 AM46 °FLow clouds.18 mph93%30.15 "HgN/A
3:20 AM46 °FPassing clouds.15 mph93%30.15 "HgN/A
2:50 AM46 °FLow clouds.13 mph93%30.18 "HgN/A
2:20 AM46 °FLow clouds.17 mph93%30.18 "HgN/A
1:50 AM46 °FLow clouds.14 mph93%30.18 "HgN/A
1:20 AM46 °FPassing clouds.15 mph93%30.18 "HgN/A
Weather by CustomWeather, © 2014

See weather overviewHow to use our weather pages